Location: Albany
(35.0000°S, 118.0000°E)
Time: 00:10:00
(UTC-04:00)

Amateur Radio Satellites - All Passes

Search period start: 30 April 2016 23:40
Search period end: 01 May 2016 23:40
Location: Albany, 35.0000°S, 118.0000°E

Satellite Date Start Highest point End Downlink Frequencies (MHz)
Time Altitude Azimuth
UKube-1 30 Apr 23:42:45 23:46:51 41° 279° (W) 23:51:01 .
ANTELSAT 30 Apr 23:46:19 23:49:10 16° 247° (WSW) 23:52:00 437.575/2403.000
GONETS M04 30 Apr 23:48:55 23:57:15 53° 90° (E) 00:05:39
AISAT 30 Apr 23:59:41 00:02:55 20° 275° (W) 00:06:11 437.250
RS-15 01 May 00:05:24 00:14:22 25° 217° (SW) 00:23:07 29.354- 29.394
QB50P2 01 May 00:08:32 00:12:31 37° 253° (WSW) 00:16:29 145.880/145.840
ESTCUBE 1 01 May 00:10:24 00:12:14 12° 272° (W) 00:14:06 437.505/2401.250
POLYITAN 1 01 May 00:10:39 00:14:38 36° 252° (WSW) 00:18:35 437.675
DUCHIFAT 1 01 May 00:11:26 00:15:27 39° 253° (WSW) 00:19:26 145.980
POPSAT HIP 1 01 May 00:13:58 00:17:53 34° 252° (WSW) 00:21:45 437.405
SPROUT 01 May 00:17:14 00:21:08 34° 278° (W) 00:25:06 437.525
QB50P1 01 May 00:17:32 00:21:20 31° 252° (WSW) 00:25:06 145.935-145.965
SRMSAT 01 May 00:25:57 00:28:41 13° 348° (NNW) 00:31:26 437.500
BEESAT 01 May 00:30:51 00:33:48 16° 114° (ESE) 00:36:47 436.000
O/OREOS (USA 219) 01 May 00:32:38 00:37:10 53° 112° (ESE) 00:41:40 437.305
Oscar 19 01 May 00:45:41 00:49:56 25° 84° (E) 00:54:07 437.125/150
PCSat 01 May 00:47:04 00:52:25 54° 119° (ESE) 00:57:43 145.827
AIST 1 01 May 00:53:08 00:56:57 28° 258° (WSW) 01:00:46
JAS-2 01 May 00:54:58 01:00:04 47° 80° (E) 01:05:06 435.910
NANOSAT C BR1 01 May 00:55:16 00:57:13 13° 246° (WSW) 00:59:09 145.865
TISAT 1 01 May 00:59:46 01:03:41 38° 279° (W) 01:07:39 437.305
BUGSAT 1 01 May 01:03:45 01:06:51 21° 250° (WSW) 01:09:58 437.445
ITUPSAT 1 01 May 01:22:15 01:26:57 56° 106° (ESE) 01:31:44 437.325
Cosmos 2499 01 May 01:25:31 01:34:13 68° 262° (W) 01:43:10 435.465 / 435.565
SWISSCUBE 01 May 01:32:48 01:37:37 83° 105° (ESE) 01:42:31 437.505
GONETS M04 01 May 01:47:05 01:54:21 29° 252° (WSW) 02:01:45
ITAMSAT 1 01 May 01:59:31 02:03:27 21° 85° (E) 02:07:20 435.822/435.867
Gurwin Techsat 1B 01 May 02:00:38 02:05:55 56° 80° (E) 02:11:09 435.225
BEESAT 01 May 02:06:33 02:11:09 47° 280° (W) 02:15:51 436.000
O/OREOS (USA 219) 01 May 02:14:18 02:16:01 12° 278° (W) 02:17:43 437.305
CUSAT 1 01 May 02:17:47 02:20:54 56° 276° (W) 02:23:33 437.405
BEESAT 3 01 May 02:19:43 02:20:39 11° 133° (SE) 02:21:35 437.485
Oscar 19 01 May 02:24:37 02:29:12 33° 250° (WSW) 02:33:46 437.125/150
AO-7 01 May 02:28:05 02:33:19 18° 87° (E) 02:38:28 29.400- 29.500
RS-15 01 May 02:29:42 02:33:01 11° 180° (S) 02:36:18 29.354- 29.394
PCSat 01 May 02:31:55 02:35:18 17° 284° (WNW) 02:38:40 145.827
DANDE 01 May 02:39:50 02:43:59 80° 99° (E) 02:47:08 436.750
JAS-2 01 May 02:41:27 02:44:44 17° 244° (WSW) 02:47:59 435.910
MOZHAYETS 4 01 May 02:56:57 03:01:19 42° 107° (ESE) 03:05:46
ITUPSAT 1 01 May 03:02:58 03:05:06 13° 272° (W) 03:07:15 437.325
KKS-1 01 May 03:09:36 03:14:03 81° 284° (WNW) 03:18:34 437.445
Cosmos 2499 01 May 03:26:28 03:29:01 11° 242° (WSW) 03:31:37 435.465 / 435.565
STARS 01 May 03:32:10 03:36:34 89° 291° (WNW) 03:41:01 437.465
ITAMSAT 1 01 May 03:38:04 03:43:01 40° 251° (WSW) 03:47:53 435.822/435.867
Gurwin Techsat 1B 01 May 03:42:02 03:45:21 17° 244° (WSW) 03:48:38 435.225
BEESAT 3 01 May 03:54:50 03:58:46 66° 297° (WNW) 04:02:39 437.485
BEESAT 2 01 May 03:57:54 04:01:55 73° 119° (ESE) 04:05:52 435.950
AO-7 01 May 04:18:23 04:26:49 82° 252° (WSW) 04:35:07 29.400- 29.500
YUBILEINY 01 May 04:20:31 04:26:44 20° 112° (ESE) 04:32:52 435.215
HORYU 2 01 May 04:31:18 04:35:44 49° 80° (E) 04:40:06 437.375
MOZHAYETS 4 01 May 04:35:50 04:38:39 16° 273° (W) 04:41:30
CUBESAT XI-V 01 May 04:36:03 04:40:39 53° 106° (ESE) 04:45:18 437.345
RS-15 01 May 04:43:07 04:51:35 24° 144° (SE) 04:59:55 29.354- 29.394
NOAA 18 01 May 04:49:41 04:50:35 10° 89° (E) 04:51:30 137.9125
Cosmos 2491 01 May 05:00:29 05:06:14 20° 99° (E) 05:11:59 435.465 / 435.565
STRAND 1 01 May 05:07:40 05:08:23 10° 119° (ESE) 05:09:06 437.568
AIST 2 01 May 05:12:35 05:16:20 30° 125° (SE) 05:20:02 435.215
Cosmos 2504 01 May 05:22:41 05:23:20 10° 120° (ESE) 05:23:58 435.465 / 435.565
BRITE-PL 01 May 05:34:48 05:37:37 17° 86° (E) 05:40:25 437.365/2234.400
Cubesat XI-IV 01 May 05:35:15 05:39:36 24° 85° (E) 05:43:54 437.490
LilacSat-2 01 May 05:36:48 05:39:37 19° 85° (E) 05:42:25 437.200
NOAA 15 01 May 05:40:21 05:45:21 41° 81° (E) 05:50:18 137.62
HORYU 2 01 May 06:09:27 06:11:49 14° 245° (WSW) 06:14:10 437.375
SO-50 01 May 06:13:17 06:17:04 29° 68° (ENE) 06:20:53 436.795
AO-7 01 May 06:13:37 06:18:16 16° 233° (SW) 06:22:56 29.400- 29.500
YUBILEINY 01 May 06:15:29 06:24:23 76° 273° (W) 06:33:10 435.215
CUBESAT XI-V 01 May 06:16:05 06:18:18 13° 272° (W) 06:20:31 437.345
NOAA 18 01 May 06:26:09 06:31:48 83° 255° (WSW) 06:37:22 137.9125
CUTE-I 01 May 06:30:35 06:36:04 85° 77° (ENE) 06:41:27 437.470
ISS 01 May 06:40:03 06:43:13 46° 47° (NE) 06:46:26 145.825
STRAND 1 01 May 06:41:34 06:46:45 86° 283° (WNW) 06:52:00 437.568
M-CUBED/EXP-1 PRIME 01 May 06:49:07 06:53:03 41° 76° (ENE) 06:57:14 437.505
AIST 2 01 May 06:51:32 06:54:36 20° 290° (WNW) 06:57:38 435.215
Cosmos 2491 01 May 06:53:20 07:02:03 74° 262° (W) 07:10:51 435.465 / 435.565
RS-15 01 May 06:54:43 07:05:45 85° 119° (ESE) 07:16:42 29.354- 29.394
PRISM 01 May 06:55:02 06:58:23 23° 110° (ESE) 07:01:45 437.425
GOMX 1 01 May 06:55:27 06:59:43 72° 78° (ENE) 07:04:09 467.674
HO-68 01 May 06:58:13 07:02:42 17° 88° (E) 07:07:08 435.675
DOVE 4 01 May 07:01:22 07:05:29 37° 81° (E) 07:09:44 437.250
AUBIESAT-1 01 May 07:09:28 07:13:35 60° 74° (ENE) 07:17:57 437.475
Cosmos 2504 01 May 07:10:02 07:18:33 68° 99° (E) 07:26:19 435.465 / 435.565
LilacSat-2 01 May 07:10:37 07:13:52 25° 251° (WSW) 07:17:06 437.200
BRITE-PL 01 May 07:12:29 07:16:10 30° 252° (WSW) 07:19:51 437.365/2234.400
Cubesat XI-IV 01 May 07:14:44 07:19:42 37° 250° (WSW) 07:24:37 437.490
NOAA 15 01 May 07:20:51 07:24:48 22° 246° (WSW) 07:28:42 137.62
CUTE 1.7 + AOD 2 01 May 07:27:48 07:31:05 21° 85° (E) 07:34:18 437.475
SO-50 01 May 07:53:56 07:57:29 24° 232° (SW) 08:01:05 436.795
SEEDS 01 May 07:58:07 08:02:03 33° 83° (E) 08:05:54 437.485
CINEMA 3 01 May 07:58:36 08:03:06 51° 80° (E) 08:07:45 145.822/145.860
COMPASS 1 01 May 08:05:16 08:08:58 28° 84° (E) 08:12:37 437.405
CUTE-I 01 May 08:13:47 08:15:18 11° 241° (WSW) 08:16:47 437.470
YUBILEINY 01 May 08:17:16 08:19:32 11° 256° (WSW) 08:21:47 435.215
ISS 01 May 08:17:27 08:19:51 18° 211° (SSW) 08:22:17 145.825
M-CUBED/EXP-1 PRIME 01 May 08:24:53 08:27:20 15° 244° (WSW) 08:29:51 437.505
CANX-2 01 May 08:29:30 08:33:49 60° 256° (WSW) 08:38:03 2200.000
PRISM 01 May 08:30:09 08:33:34 24° 276° (W) 08:37:01 437.425
AAUSAT CUBESAT 2 01 May 08:37:38 08:41:50 57° 80° (E) 08:45:56 437.432
DOVE 4 01 May 08:40:04 08:42:55 17° 249° (WSW) 08:45:49 437.250
PHONESAT 2.4 01 May 08:40:18 08:42:16 15° 36° (NE) 08:44:16 2401.200-2431.200
Oscar 11 01 May 08:41:18 08:44:52 23° 85° (E) 08:48:23 145.826/435.025
TIGRISAT 01 May 08:42:05 08:44:12 13° 114° (ESE) 08:46:20 435.000
HO-68 01 May 08:43:42 08:50:58 74° 252° (WSW) 08:58:08 435.675
AUBIESAT-1 01 May 08:46:25 08:47:39 11° 242° (WSW) 08:48:55 437.475
FUNcube-1 01 May 08:49:41 08:53:31 25° 84° (E) 08:57:19 145.935
UWE-3 01 May 08:55:18 08:59:48 47° 81° (E) 09:04:18 435.000/436.395/437.385
Cosmos 2491 01 May 08:57:42 09:00:28 12° 242° (WSW) 09:03:14 435.465 / 435.565
CUBEBUG 2 01 May 08:58:35 09:03:15 76° 79° (E) 09:07:59 437.445
CUTE 1.7 + AOD 2 01 May 09:03:09 09:06:53 28° 251° (WSW) 09:10:33 437.475
ANTELSAT 01 May 09:04:29 09:08:03 26° 110° (ESE) 09:11:42 437.575/2403.000
Cosmos 2504 01 May 09:05:12 09:10:54 21° 260° (W) 09:16:22 435.465 / 435.565
RS-15 01 May 09:09:32 09:16:36 20° 281° (W) 09:23:44 29.354- 29.394
HUMSAT D 01 May 09:16:42 09:18:20 12° 88° (E) 09:19:57 437.325/437.525
ZACube-1 01 May 09:30:16 09:34:54 80° 79° (ENE) 09:39:31 437.345
SEEDS 01 May 09:34:36 09:37:27 17° 248° (WSW) 09:40:16 437.485
CINEMA 3 01 May 09:37:24 09:39:50 14° 247° (WSW) 09:42:17 145.822/145.860
COMPASS 1 01 May 09:41:12 09:44:19 20° 249° (WSW) 09:47:23 437.405
UNISAT 6 01 May 09:57:54 10:02:11 72° 282° (WNW) 10:06:37 437.425
GONETS M04 01 May 10:04:15 10:10:44 22° 111° (ESE) 10:17:10
DELFI C3 01 May 10:06:33 10:10:37 66° 256° (WSW) 10:14:34 145.870
NANOSAT C BR1 01 May 10:07:13 10:10:32 23° 110° (ESE) 10:13:54 145.865
PHONESAT 2.4 01 May 10:15:38 10:18:51 87° 206° (SSW) 10:22:05 2401.200-2431.200
AAUSAT CUBESAT 2 01 May 10:15:59 10:16:46 10° 245° (WSW) 10:17:33 437.432
TIGRISAT 01 May 10:16:19 10:20:25 45° 279° (W) 10:24:40 435.000
BUGSAT 1 01 May 10:16:35 10:18:13 12° 114° (ESE) 10:19:52 437.445
Oscar 11 01 May 10:17:14 10:20:53 26° 250° (WSW) 10:24:30 145.826/435.025
FUNcube-1 01 May 10:25:49 10:29:38 26° 250° (WSW) 10:33:27 145.935
ESTCUBE 1 01 May 10:28:09 10:30:38 14° 87° (E) 10:33:06 437.505/2401.250
UWE-3 01 May 10:33:11 10:35:49 15° 247° (WSW) 10:38:29 435.000/436.395/437.385
HO-68 01 May 10:34:48 10:37:25 12° 235° (SW) 10:40:02 435.675
ANTELSAT 01 May 10:41:18 10:44:42 23° 275° (W) 10:48:11 437.575/2403.000
HUMSAT D 01 May 10:49:57 10:54:12 49° 254° (WSW) 10:58:23 437.325/437.525
QB50P2 01 May 10:57:15 11:01:28 78° 283° (WNW) 11:05:45 145.880/145.840
CUBEBUG 1 01 May 10:58:14 11:01:36 21° 85° (E) 11:04:56 437.445
POLYITAN 1 01 May 10:59:23 11:03:35 76° 282° (WNW) 11:07:52 437.675
DUCHIFAT 1 01 May 10:59:28 11:03:39 86° 282° (WNW) 11:07:55 145.980
POPSAT HIP 1 01 May 11:02:30 11:06:43 72° 281° (W) 11:10:59 437.405
AIST 1 01 May 11:02:58 11:07:09 47° 99° (E) 11:11:16
JAS-2 01 May 11:04:33 11:09:06 19° 115° (ESE) 11:13:23 435.910
QB50P1 01 May 11:05:57 11:10:08 64° 281° (W) 11:14:23 145.935-145.965
VELOX 1 01 May 11:20:04 11:24:15 39° 81° (E) 11:28:24 145.980
Cosmos 2499 01 May 11:22:18 11:29:47 37° 106° (ESE) 11:36:40 435.465 / 435.565
DX 1 01 May 11:23:16 11:27:22 37° 81° (E) 11:31:25 434.975-435.025
UKube-1 01 May 11:33:02 11:37:10 39° 81° (E) 11:41:13 .
AO-85 01 May 11:35:23 11:38:08 19° 69° (ENE) 11:40:54 145.980
NANOSAT C BR1 01 May 11:42:42 11:46:08 24° 276° (W) 11:49:37 145.865
BUGSAT 1 01 May 11:49:16 11:53:10 44° 279° (W) 11:57:06 437.445
AISAT 01 May 11:51:41 11:56:10 81° 256° (WSW) 12:00:35 437.250
PHONESAT 2.4 01 May 11:53:02 11:55:58 31° 187° (S) 11:58:54 2401.200-2431.200
50 SAT 01 May 11:53:42 11:57:27 55° 255° (WSW) 12:01:08 437.505
Oscar 19 01 May 11:59:22 12:03:40 27° 112° (ESE) 12:07:59 437.125/150
GONETS M04 01 May 11:59:27 12:08:16 71° 273° (W) 12:17:03
ESTCUBE 1 01 May 12:03:17 12:07:38 44° 253° (WSW) 12:11:55 437.505/2401.250
SPROUT 01 May 12:06:07 12:10:20 49° 80° (E) 12:14:31 437.525
CUBEBUG 1 01 May 12:34:08 12:37:50 27° 251° (WSW) 12:41:31 437.445
AIST 1 01 May 12:43:09 12:44:12 11° 265° (W) 12:45:16
JAS-2 01 May 12:46:18 12:53:38 72° 282° (WNW) 13:00:12 435.910
TISAT 1 01 May 12:46:46 12:50:46 39° 81° (E) 12:54:45 437.305
VELOX 1 01 May 12:57:38 13:00:22 16° 247° (WSW) 13:03:05 145.980
DX 1 01 May 13:00:27 13:03:13 17° 247° (WSW) 13:05:57 434.975-435.025
UKube-1 01 May 13:10:14 13:12:50 16° 247° (WSW) 13:15:26 .
ISS 01 May 13:11:02 13:13:17 17° 150° (SSE) 13:15:32 145.825
ITAMSAT 1 01 May 13:14:17 13:18:25 24° 113° (ESE) 13:22:34 435.822/435.867
AO-85 01 May 13:15:09 13:18:21 25° 234° (SW) 13:21:36 145.980
Cosmos 2499 01 May 13:15:28 13:22:46 37° 266° (W) 13:29:32 435.465 / 435.565
Gurwin Techsat 1B 01 May 13:18:17 13:23:33 64° 106° (ESE) 13:28:53 435.225
AO-7 01 May 13:23:59 13:29:46 21° 124° (SE) 13:35:33 29.400- 29.500
ITUPSAT 1 01 May 13:27:07 13:30:33 19° 86° (E) 13:33:56 437.325
PHONESAT 2.4 01 May 13:30:19 13:33:19 34° 170° (S) 13:36:17 2401.200-2431.200
CUSAT 1 01 May 13:33:03 13:38:36 22° 90° (E) 13:43:34 437.405
SWISSCUBE 01 May 13:36:53 13:41:02 27° 83° (E) 13:45:07 437.505
Oscar 19 01 May 13:38:16 13:42:49 31° 277° (W) 13:47:25 437.125/150
SPROUT 01 May 13:43:55 13:45:49 13° 246° (WSW) 13:47:43 437.525
DANDE 01 May 13:59:29 14:05:22 22° 94° (E) 14:10:54 436.750
BEESAT 01 May 14:09:47 14:14:35 57° 80° (E) 14:19:18 436.000
TISAT 1 01 May 14:23:38 14:26:03 15° 247° (WSW) 14:28:29 437.305
O/OREOS (USA 219) 01 May 14:41:23 14:45:51 69° 250° (WSW) 14:50:23 437.305
ISS 01 May 14:46:43 14:49:59 54° 314° (NW) 14:53:13 145.825
SO-50 01 May 14:48:11 14:50:36 14° 133° (SE) 14:53:03 436.795
ITAMSAT 1 01 May 14:52:48 14:57:36 37° 278° (W) 15:02:29 435.822/435.867
MOZHAYETS 4 01 May 14:57:05 14:59:16 13° 88° (E) 15:01:27
Gurwin Techsat 1B 01 May 15:01:26 15:03:52 13° 272° (W) 15:06:21 435.225
ITUPSAT 1 01 May 15:03:58 15:08:28 38° 251° (WSW) 15:12:55 437.325
KKS-1 01 May 15:04:24 15:08:07 25° 84° (E) 15:11:47 437.445
PHONESAT 2.4 01 May 15:07:08 15:10:20 67° 335° (NNW) 15:13:30 2401.200-2431.200
CUSAT 1 01 May 15:12:47 15:20:26 61° 260° (W) 15:26:50 437.405
AO-7 01 May 15:13:08 15:21:32 81° 287° (WNW) 15:30:02 29.400- 29.500
SWISSCUBE 01 May 15:14:40 15:18:42 27° 249° (WSW) 15:22:41 437.505
PCSat 01 May 15:25:04 15:30:28 83° 244° (WSW) 15:35:57 145.827
STARS 01 May 15:25:37 15:29:03 21° 84° (E) 15:32:27 437.465
HORYU 2 01 May 15:26:17 15:30:09 30° 110° (ESE) 15:34:05 437.375
DANDE 01 May 15:39:14 15:47:41 74° 261° (W) 15:55:19 436.750
BEESAT 01 May 15:49:26 15:51:49 14° 244° (WSW) 15:54:12 436.000
NOAA 18 01 May 16:11:15 16:14:36 17° 117° (ESE) 16:17:58 137.9125
CUTE-I 01 May 16:13:23 16:15:06 12° 119° (ESE) 16:16:50 437.470
SO-50 01 May 16:26:52 16:31:29 68° 297° (WNW) 16:36:12 436.795
MOZHAYETS 4 01 May 16:32:08 16:36:42 51° 254° (WSW) 16:41:11
CUBESAT XI-V 01 May 16:37:13 16:40:14 17° 87° (E) 16:43:12 437.345
KKS-1 01 May 16:40:51 16:44:34 25° 250° (WSW) 16:48:15 437.445
BRITE-PL 01 May 16:42:21 16:45:46 18° 111° (ESE) 16:49:03 437.365/2234.400
PHONESAT 2.4 01 May 16:46:20 16:46:46 10° 321° (NW) 16:47:12 2401.200-2431.200
Cubesat XI-IV 01 May 16:53:56 16:58:31 29° 112° (ESE) 17:03:10 437.490
NOAA 15 01 May 16:57:00 17:02:06 48° 108° (ESE) 17:07:13 137.62
STARS 01 May 17:01:31 17:05:22 29° 250° (WSW) 17:09:11 437.465
HORYU 2 01 May 17:03:21 17:06:41 21° 275° (W) 17:10:05 437.375
Cosmos 2491 01 May 17:07:57 17:16:25 49° 102° (ESE) 17:24:50 435.465 / 435.565
AO-7 01 May 17:11:56 17:15:18 13° 271° (W) 17:18:42 29.400- 29.500
PCSat 01 May 17:12:47 17:14:41 12° 226° (SW) 17:16:35 145.827
YUBILEINY 01 May 17:17:34 17:24:22 26° 97° (E) 17:31:12 435.215
DANDE 01 May 17:27:47 17:31:21 13° 247° (WSW) 17:34:46 436.750
M-CUBED/EXP-1 PRIME 01 May 17:34:09 17:36:51 24° 113° (ESE) 17:39:36 437.505
BEESAT 3 01 May 17:42:25 17:46:10 44° 65° (ENE) 17:49:56 437.485
BEESAT 2 01 May 17:47:16 17:50:39 27° 68° (ENE) 17:54:04 435.950
LilacSat-2 01 May 17:48:29 17:52:17 83° 283° (WNW) 17:56:09 437.200
CUTE-I 01 May 17:48:59 17:54:21 82° 283° (WNW) 17:59:49 437.470
NOAA 18 01 May 17:49:16 17:54:40 60° 282° (WNW) 18:00:11 137.9125
JUGNU 01 May 17:50:40 17:53:48 15° 10° (N) 17:56:56 437.505
AUBIESAT-1 01 May 17:53:43 17:56:47 35° 111° (ESE) 17:59:55 437.475
GOMX 1 01 May 18:00:10 18:04:48 53° 105° (ESE) 18:09:11 467.674
DOVE 4 01 May 18:04:19 18:07:57 25° 109° (ESE) 18:11:29 437.250
CUBESAT XI-V 01 May 18:13:22 18:17:44 39° 252° (WSW) 18:22:01 437.345
BRITE-PL 01 May 18:19:01 18:23:58 43° 279° (W) 18:28:36 437.365/2234.400
CUTE 1.7 + AOD 2 01 May 18:19:49 18:20:33 10° 115° (ESE) 18:21:18 437.475
Cubesat XI-IV 01 May 18:33:46 18:38:27 31° 277° (W) 18:43:13 437.490
NOAA 15 01 May 18:38:32 18:42:04 18° 274° (W) 18:45:37 137.62
SEEDS 01 May 18:47:35 18:50:16 16° 112° (ESE) 18:52:58 437.485
COMPASS 1 01 May 18:54:13 18:56:21 14° 113° (ESE) 18:58:30 437.405
STRAND 1 01 May 18:55:43 19:00:39 42° 81° (E) 19:05:32 437.568
CINEMA 3 01 May 18:57:46 19:01:23 28° 109° (ESE) 19:05:00 145.822/145.860
Cosmos 2491 01 May 19:05:24 19:12:49 32° 265° (W) 19:20:14 435.465 / 435.565
RS-15 01 May 19:07:30 19:13:26 15° 81° (E) 19:19:14 29.354- 29.394
HO-68 01 May 19:08:06 19:15:07 60° 110° (ESE) 19:22:15 435.675
AIST 2 01 May 19:08:40 19:10:48 14° 72° (ENE) 19:12:56 435.215
M-CUBED/EXP-1 PRIME 01 May 19:09:52 19:11:29 13° 279° (W) 19:13:06 437.505
YUBILEINY 01 May 19:11:48 19:20:26 60° 260° (W) 19:29:13 435.215
CANX-2 01 May 19:18:29 19:22:43 61° 104° (ESE) 19:27:02 2200.000
BEESAT 3 01 May 19:21:54 19:24:06 14° 229° (SW) 19:26:18 437.485
AAUSAT CUBESAT 2 01 May 19:24:58 19:28:24 25° 109° (ESE) 19:31:53 437.432
BEESAT 2 01 May 19:25:24 19:28:29 21° 232° (SW) 19:31:34 435.950
Oscar 11 01 May 19:34:19 19:36:19 13° 114° (ESE) 19:38:18 145.826/435.025
JUGNU 01 May 19:38:12 19:42:06 18° 360° (N) 19:45:58 437.505
GOMX 1 01 May 19:41:17 19:43:04 12° 273° (W) 19:44:50 467.674
DOVE 4 01 May 19:42:05 19:45:34 23° 276° (W) 19:49:00 437.250
Cosmos 2504 01 May 19:42:18 19:50:46 63° 89° (E) 19:59:36 435.465 / 435.565
FUNcube-1 01 May 19:43:51 19:45:41 13° 114° (ESE) 19:47:34 145.935
UWE-3 01 May 19:49:47 19:53:09 24° 110° (ESE) 19:56:36 435.000/436.395/437.385
CUTE 1.7 + AOD 2 01 May 19:51:34 19:55:48 61° 281° (W) 20:00:07 437.475
CUBEBUG 2 01 May 19:53:46 19:57:38 39° 107° (ESE) 20:01:37 437.445
AO-85 01 May 20:10:00 20:11:11 11° 133° (SE) 20:12:25 145.980
PRISM 01 May 20:14:12 20:18:18 57° 79° (E) 20:22:18 437.425
SEEDS 01 May 20:21:42 20:25:38 36° 277° (W) 20:29:38 437.485
ZACube-1 01 May 20:22:59 20:26:52 38° 107° (ESE) 20:30:53 437.345
COMPASS 1 01 May 20:27:26 20:31:28 43° 279° (W) 20:35:35 437.405
SRMSAT 01 May 20:35:16 20:38:51 16° 7° (N) 20:42:28 437.500
CINEMA 3 01 May 20:35:35 20:38:32 18° 274° (W) 20:41:29 145.822/145.860
STRAND 1 01 May 20:35:44 20:39:28 20° 246° (WSW) 20:43:11 437.568
AIST 2 01 May 20:44:55 20:48:52 43° 237° (WSW) 20:52:53 435.215
DELFI C3 01 May 20:49:01 20:52:52 43° 106° (ESE) 20:56:46 145.870
HO-68 01 May 20:57:52 21:03:12 22° 274° (W) 21:08:35 435.675
AAUSAT CUBESAT 2 01 May 21:00:27 21:03:47 23° 275° (W) 21:07:10 437.432
Oscar 11 01 May 21:07:44 21:11:57 49° 280° (W) 21:16:15 145.826/435.025
RS-15 01 May 21:12:06 21:24:05 79° 65° (ENE) 21:35:31 29.354- 29.394
FUNcube-1 01 May 21:17:26 21:21:27 46° 279° (W) 21:25:36 145.935
UWE-3 01 May 21:26:12 21:29:31 23° 275° (W) 21:32:55 435.000/436.395/437.385
JUGNU 01 May 21:27:20 21:30:21 14° 350° (N) 21:33:23 437.505
CUBEBUG 2 01 May 21:32:20 21:34:27 14° 272° (W) 21:36:36 437.445
HUMSAT D 01 May 21:37:28 21:41:36 72° 103° (ESE) 21:45:52 437.325/437.525
Cosmos 2504 01 May 21:37:44 21:44:42 26° 250° (WSW) 21:51:54 435.465 / 435.565
AO-85 01 May 21:47:29 21:52:08 90° 120° (ESE) 21:57:11 145.980
CUBEBUG 1 01 May 21:52:26 21:54:25 13° 114° (ESE) 21:56:25 437.445
UNISAT 6 01 May 21:52:56 21:57:07 31° 83° (E) 22:01:18 437.425
ZACube-1 01 May 22:01:06 22:03:20 14° 272° (W) 22:05:36 437.345
TIGRISAT 01 May 22:10:38 22:15:10 46° 81° (E) 22:19:43 435.000
VELOX 1 01 May 22:14:31 22:18:06 24° 111° (ESE) 22:21:42 145.980
DX 1 01 May 22:16:01 22:19:25 22° 111° (ESE) 22:22:51 434.975-435.025
SRMSAT 01 May 22:23:27 22:27:18 18° 357° (N) 22:31:10 437.500
UKube-1 01 May 22:24:48 22:28:13 23° 111° (ESE) 22:31:39 .
DELFI C3 01 May 22:26:25 22:27:56 12° 272° (W) 22:29:27 145.870
50 SAT 01 May 22:28:57 22:32:26 37° 106° (ESE) 22:35:59 437.505
ANTELSAT 01 May 22:34:47 22:39:32 88° 261° (W) 22:44:16 437.575/2403.000
AISAT 01 May 22:45:31 22:49:53 58° 105° (ESE) 22:54:17 437.250
QB50P2 01 May 22:46:11 22:49:33 22° 85° (E) 22:52:53 145.880/145.840
DUCHIFAT 1 01 May 22:47:48 22:50:54 19° 85° (E) 22:53:58 145.980
POLYITAN 1 01 May 22:48:16 22:51:41 22° 84° (E) 22:55:03 437.675
POPSAT HIP 1 01 May 22:51:11 22:54:38 23° 84° (E) 22:58:04 437.405
QB50P1 01 May 22:54:25 22:58:02 26° 84° (E) 23:01:37 145.935-145.965
SPROUT 01 May 22:56:53 23:00:23 25° 110° (ESE) 23:03:54 437.525
ESTCUBE 1 01 May 22:58:52 23:03:25 73° 283° (WNW) 23:08:03 437.505/2401.250
GONETS M04 01 May 23:01:30 23:08:26 28° 96° (E) 23:15:24
O/OREOS (USA 219) 01 May 23:17:35 23:19:22 12° 123° (ESE) 23:21:09 437.305
CUBEBUG 1 01 May 23:25:57 23:30:14 50° 280° (W) 23:34:33 437.445
AIST 1 01 May 23:28:46 23:32:42 33° 89° (E) 23:36:40
NANOSAT C BR1 01 May 23:29:25 23:33:42 67° 79° (E) 23:37:57 145.865
UNISAT 6 01 May 23:29:56 23:33:38 23° 249° (WSW) 23:37:18 437.425
